| time (UTC) | temp F | wind direction | speed MPH | gust MPH | rain 1hr in | rain 24hr in | rain mn in | humidity % | barometer mb |
| 20260506210833 | 85 | 306 | 2.0 | 9.0 | 0.00 | 0.00 | 0.00 | 15 | 1017.9 |
| 20260506210325 | 85 | 275 | 3.0 | 9.0 | 0.00 | 0.00 | 0.00 | 16 | 1017.9 |
| 20260506205832 | 84 | 204 | 1.0 | 5.0 | 0.00 | 0.00 | 0.00 | 17 | 1017.9 |
| 20260506205343 | 84 | 204 | 2.0 | 7.0 | 0.00 | 0.00 | 0.00 | 17 | 1018.0 |
| 20260506204829 | 83 | 206 | 4.0 | 7.0 | 0.00 | 0.00 | 0.00 | 16 | 1018.1 |
| 20260506204340 | 83 | 227 | 1.0 | 8.0 | 0.00 | 0.00 | 0.00 | 17 | 1018.2 |
| 20260506203827 | 84 | 256 | 3.0 | 10.0 | 0.00 | 0.00 | 0.00 | 16 | 1018.4 |
| 20260506203342 | 84 | 320 | 5.0 | 10.0 | 0.00 | 0.00 | 0.00 | 17 | 1018.3 |
| 20260506202848 | 84 | 242 | 2.0 | 8.0 | 0.00 | 0.00 | 0.00 | 17 | 1018.3 |
| 20260506202318 | 83 | 90 | 3.0 | 8.0 | 0.00 | 0.00 | 0.00 | 17 | 1018.4 |
| 20260506201825 | 83 | 306 | 4.0 | 7.0 | 0.00 | 0.00 | 0.00 | 17 | 1018.5 |
| 20260506201316 | 82 | 203 | 1.0 | 7.0 | 0.00 | 0.00 | 0.00 | 18 | 1018.5 |
| 20260506200823 | 82 | 217 | 3.0 | 9.0 | 0.00 | 0.00 | 0.00 | 17 | 1018.6 |
| 20260506200354 | 82 | 248 | 3.0 | 10.0 | 0.00 | 0.00 | 0.00 | 17 | 1018.6 |
| 20260506195821 | 82 | 289 | 3.0 | 5.0 | 0.00 | 0.00 | 0.00 | 17 | 1018.7 |
| 20260506195332 | 81 | 53 | 1.0 | 8.0 | 0.00 | 0.00 | 0.00 | 18 | 1018.7 |
| 20260506194820 | 81 | 53 | 3.0 | 8.0 | 0.00 | 0.00 | 0.00 | 19 | 1018.8 |
| 20260506194315 | 81 | 301 | 3.0 | 6.0 | 0.00 | 0.00 | 0.00 | 19 | 1018.8 |
| 20260506193822 | 80 | 244 | 0.0 | 10.0 | 0.00 | 0.00 | 0.00 | 20 | 1018.9 |
| 20260506193331 | 81 | 275 | 4.0 | 10.0 | 0.00 | 0.00 | 0.00 | 19 | 1019.0 |
| 20260506192818 | 81 | 240 | 4.0 | 10.0 | 0.00 | 0.00 | 0.00 | 20 | 1019.0 |
| 20260506192329 | 80 | 241 | 5.0 | 10.0 | 0.00 | 0.00 | 0.00 | 20 | 1019.1 |
| 20260506191817 | 80 | 291 | 3.0 | 8.0 | 0.00 | 0.00 | 0.00 | 20 | 1019.1 |
| 20260506191328 | 80 | 232 | 3.0 | 8.0 | 0.00 | 0.00 | 0.00 | 20 | 1019.1 |
| 20260506190815 | 80 | 184 | 3.0 | 8.0 | 0.00 | 0.00 | 0.00 | 22 | 1019.2 |
| 20260506190326 | 79 | 150 | 2.0 | 8.0 | 0.00 | 0.00 | 0.00 | 20 | 1019.3 |
| 20260506185814 | 79 | 203 | 2.0 | 5.0 | 0.00 | 0.00 | 0.00 | 21 | 1019.4 |
| 20260506185329 | 79 | 201 | 1.0 | 5.0 | 0.00 | 0.00 | 0.00 | 21 | 1019.4 |
| 20260506184816 | 79 | 200 | 3.0 | 5.0 | 0.00 | 0.00 | 0.00 | 21 | 1019.5 |
| 20260506184326 | 79 | 261 | 3.0 | 8.0 | 0.00 | 0.00 | 0.00 | 21 | 1019.6 |
| 20260506183833 | 79 | 296 | 2.0 | 9.0 | 0.00 | 0.00 | 0.00 | 20 | 1019.7 |
| 20260506183324 | 78 | 300 | 4.0 | 9.0 | 0.00 | 0.00 | 0.00 | 21 | 1019.8 |
| 20260506182831 | 78 | 14 | 1.0 | 5.0 | 0.00 | 0.00 | 0.00 | 23 | 1019.8 |
| 20260506182342 | 78 | 5 | 2.0 | 6.0 | 0.00 | 0.00 | 0.00 | 23 | 1019.9 |
| 20260506181828 | 77 | 355 | 2.0 | 6.0 | 0.00 | 0.00 | 0.00 | 23 | 1019.9 |
| 20260506181339 | 77 | 279 | 2.0 | 5.0 | 0.00 | 0.00 | 0.00 | 24 | 1020.0 |
| 20260506180825 | 76 | 279 | 2.0 | 6.0 | 0.00 | 0.00 | 0.00 | 24 | 1020.1 |
| 20260506180316 | 76 | 196 | 3.0 | 6.0 | 0.00 | 0.00 | 0.00 | 24 | 1020.0 |
| 20260506175827 | 76 | 196 | 1.0 | 5.0 | 0.00 | 0.00 | 0.00 | 25 | 1020.1 |
| 20260506175318 | 76 | 230 | 1.0 | 7.0 | 0.00 | 0.00 | 0.00 | 25 | 1020.1 |
| 20260506174846 | 76 | 230 | 2.0 | 7.0 | 0.00 | 0.00 | 0.00 | 25 | 1020.2 |
| 20260506174316 | 76 | 252 | 1.0 | 9.0 | 0.00 | 0.00 | 0.00 | 25 | 1020.2 |
| 20260506173824 | 76 | 237 | 4.0 | 9.0 | 0.00 | 0.00 | 0.00 | 25 | 1020.2 |
| 20260506173315 | 75 | 198 | 3.0 | 8.0 | 0.00 | 0.00 | 0.00 | 26 | 1020.1 |
| 20260506172822 | 75 | 275 | 1.0 | 6.0 | 0.00 | 0.00 | 0.00 | 26 | 1020.1 |
| 20260506172333 | 75 | 275 | 2.0 | 7.0 | 0.00 | 0.00 | 0.00 | 26 | 1020.1 |
| 20260506171820 | 74 | 275 | 0.0 | 7.0 | 0.00 | 0.00 | 0.00 | 25 | 1020.0 |
| 20260506171315 | 74 | 222 | 4.0 | 7.0 | 0.00 | 0.00 | 0.00 | 26 | 1020.1 |
| 20260506170822 | 74 | 176 | 3.0 | 6.0 | 0.00 | 0.00 | 0.00 | 27 | 1020.0 |
| 20260506170314 | 73 | 176 | 1.0 | 4.0 | 0.00 | 0.00 | 0.00 | 27 | 1020.1 |
| 20260506165821 | 73 | 176 | 2.0 | 7.0 | 0.00 | 0.00 | 0.00 | 29 | 1020.0 |
| 20260506165332 | 73 | 199 | 1.0 | 5.0 | 0.00 | 0.00 | 0.00 | 29 | 1020.0 |
| 20260506164819 | 72 | 199 | 2.0 | 5.0 | 0.00 | 0.00 | 0.00 | 29 | 1020.0 |
| 20260506164330 | 72 | 200 | 1.0 | 4.0 | 0.00 | 0.00 | 0.00 | 28 | 1020.1 |
| 20260506163817 | 72 | 200 | 1.0 | 6.0 | 0.00 | 0.00 | 0.00 | 29 | 1020.1 |
| 20260506163328 | 72 | 200 | 3.0 | 6.0 | 0.00 | 0.00 | 0.00 | 30 | 1020.0 |
| 20260506162819 | 71 | 254 | 1.0 | 4.0 | 0.00 | 0.00 | 0.00 | 30 | 1020.0 |
| 20260506162329 | 71 | 254 | 2.0 | 4.0 | 0.00 | 0.00 | 0.00 | 29 | 1020.0 |
| 20260506161816 | 71 | 254 | 0.0 | 2.0 | 0.00 | 0.00 | 0.00 | 29 | 1020.0 |
| 20260506161347 | 71 | 254 | 1.0 | 5.0 | 0.00 | 0.00 | 0.00 | 29 | 1020.0 |
| 20260506160854 | 71 | 254 | 2.0 | 5.0 | 0.00 | 0.00 | 0.00 | 29 | 1020.1 |
| 20260506160324 | 71 | 252 | 2.0 | 4.0 | 0.00 | 0.00 | 0.00 | 29 | 1020.0 |
| 20260506155830 | 70 | 252 | 1.0 | 4.0 | 0.00 | 0.00 | 0.00 | 30 | 1020.0 |
| 20260506155341 | 70 | 252 | 0.0 | 3.0 | 0.00 | 0.00 | 0.00 | 30 | 1020.1 |
| 20260506154826 | 70 | 252 | 1.0 | 3.0 | 0.00 | 0.00 | 0.00 | 31 | 1020.1 |
| 20260506154318 | 70 | 252 | 2.0 | 3.0 | 0.00 | 0.00 | 0.00 | 31 | 1020.0 |
| 20260506153825 | 70 | 252 | 2.0 | 3.0 | 0.00 | 0.00 | 0.00 | 30 | 1020.0 |
| 20260506153316 | 70 | 252 | 2.0 | 3.0 | 0.00 | 0.00 | 0.00 | 30 | 1020.1 |
| 20260506152824 | 70 | 252 | 1.0 | 2.0 | 0.00 | 0.00 | 0.00 | 30 | 1020.1 |
| 20260506152319 | 70 | 252 | 0.0 | 2.0 | 0.00 | 0.00 | 0.00 | 31 | 1020.1 |
| 20260506151825 | 69 | 252 | 0.0 | 2.0 | 0.00 | 0.00 | 0.00 | 31 | 1020.1 |
| 20260506151315 | 69 | 252 | 2.0 | 2.0 | 0.00 | 0.00 | 0.00 | 32 | 1020.2 |
| 20260506150824 | 68 | 252 | 0.0 | 3.0 | 0.00 | 0.00 | 0.00 | 31 | 1020.1 |
| 20260506150336 | 68 | 252 | 0.0 | 3.0 | 0.00 | 0.00 | 0.00 | 33 | 1020.1 |
| 20260506145842 | 67 | 252 | 0.0 | 3.0 | 0.00 | 0.00 | 0.00 | 34 | 1020.0 |
| 20260506145332 | 67 | 252 | 1.0 | 3.0 | 0.00 | 0.00 | 0.00 | 34 | 1020.0 |
| 20260506144819 | 66 | 252 | 1.0 | 3.0 | 0.00 | 0.00 | 0.00 | 35 | 1019.9 |
| 20260506144330 | 66 | 252 | 1.0 | 3.0 | 0.00 | 0.00 | 0.00 | 36 | 1019.9 |
| 20260506143818 | 65 | 252 | 1.0 | 3.0 | 0.00 | 0.00 | 0.00 | 37 | 1019.8 |
| 20260506143329 | 65 | 252 | 0.0 | 4.0 | 0.00 | 0.00 | 0.00 | 37 | 1019.8 |
| 20260506142820 | 64 | 252 | 2.0 | 4.0 | 0.00 | 0.00 | 0.00 | 38 | 1019.8 |
| 20260506142331 | 63 | 252 | 0.0 | 0.0 | 0.00 | 0.00 | 0.00 | 39 | 1019.7 |
| 20260506141818 | 63 | 252 | 0.0 | 0.0 | 0.00 | 0.00 | 0.00 | 39 | 1019.7 |
| 20260506141349 | 63 | 252 | 0.0 | 3.0 | 0.00 | 0.00 | 0.00 | 39 | 1019.7 |
| 20260506140835 | 63 | 252 | 2.0 | 3.0 | 0.00 | 0.00 | 0.00 | 40 | 1019.6 |
| 20260506140325 | 62 | 252 | 1.0 | 3.0 | 0.00 | 0.00 | 0.00 | 41 | 1019.4 |
| 20260506135832 | 61 | 252 | 0.0 | 3.0 | 0.00 | 0.00 | 0.00 | 42 | 1019.5 |
| 20260506135323 | 60 | 252 | 1.0 | 3.0 | 0.00 | 0.00 | 0.00 | 44 | 1019.4 |
| 20260506134830 | 59 | 252 | 0.0 | 0.0 | 0.00 | 0.00 | 0.00 | 46 | 1019.4 |
| 20260506134322 | 58 | 252 | 0.0 | 2.0 | 0.00 | 0.00 | 0.00 | 46 | 1019.4 |
| 20260506133815 | 57 | 252 | 0.0 | 2.0 | 0.00 | 0.00 | 0.00 | 47 | 1019.3 |
| 20260506133346 | 56 | 252 | 0.0 | 0.0 | 0.00 | 0.00 | 0.00 | 49 | 1019.2 |
| 20260506132832 | 56 | 252 | 0.0 | 1.0 | 0.00 | 0.00 | 0.00 | 50 | 1019.2 |
| 20260506132323 | 56 | 252 | 0.0 | 1.0 | 0.00 | 0.00 | 0.00 | 50 | 1019.2 |
| 20260506131831 | 55 | 252 | 0.0 | 0.0 | 0.00 | 0.00 | 0.00 | 51 | 1019.1 |
| 20260506131322 | 55 | 252 | 0.0 | 2.0 | 0.00 | 0.00 | 0.00 | 51 | 1019.0 |
| 20260506130829 | 55 | 252 | 0.0 | 2.0 | 0.00 | 0.00 | 0.00 | 51 | 1019.0 |
| 20260506130321 | 55 | 252 | 0.0 | 3.0 | 0.00 | 0.00 | 0.00 | 51 | 1018.9 |
| 20260506125827 | 54 | 252 | 2.0 | 3.0 | 0.00 | 0.00 | 0.00 | 52 | 1018.9 |
| 20260506125322 | 54 | 252 | 1.0 | 2.0 | 0.00 | 0.00 | 0.00 | 53 | 1018.7 |
| 20260506124829 | 54 | 252 | 0.0 | 0.0 | 0.00 | 0.00 | 0.00 | 53 | 1018.7 |
| 20260506124320 | 54 | 252 | 0.0 | 0.0 | 0.00 | 0.00 | 0.00 | 55 | 1018.7 |
| 20260506123827 | 54 | 252 | 0.0 | 0.0 | 0.00 | 0.00 | 0.00 | 55 | 1018.6 |
| 20260506123318 | 54 | 252 | 0.0 | 0.0 | 0.00 | 0.00 | 0.00 | 57 | 1018.5 |
| 20260506122825 | 54 | 252 | 0.0 | 0.0 | 0.00 | 0.00 | 0.00 | 56 | 1018.4 |
| 20260506122316 | 54 | 252 | 0.0 | 0.0 | 0.00 | 0.00 | 0.00 | 57 | 1018.4 |
| 20260506121822 | 54 | 252 | 0.0 | 0.0 | 0.00 | 0.00 | 0.00 | 56 | 1018.4 |
| 20260506121332 | 54 | 252 | 0.0 | 0.0 | 0.00 | 0.00 | 0.00 | 58 | 1018.3 |
| 20260506120824 | 54 | 252 | 0.0 | 0.0 | 0.00 | 0.00 | 0.00 | 58 | 1018.2 |
| 20260506120335 | 55 | 252 | 0.0 | 0.0 | 0.00 | 0.00 | 0.00 | 59 | 1018.2 |
| 20260506115821 | 55 | 252 | 0.0 | 0.0 | 0.00 | 0.00 | 0.00 | 60 | 1018.2 |
| 20260506115333 | 55 | 252 | 0.0 | 0.0 | 0.00 | 0.00 | 0.00 | 59 | 1018.2 |
| 20260506114820 | 55 | 252 | 0.0 | 0.0 | 0.00 | 0.00 | 0.00 | 59 | 1018.1 |
| 20260506114353 | 55 | 252 | 0.0 | 0.0 | 0.00 | 0.00 | 0.00 | 58 | 1018.1 |
| 20260506113819 | 55 | 252 | 0.0 | 0.0 | 0.00 | 0.00 | 0.00 | 58 | 1018.1 |
| 20260506113350 | 55 | 252 | 0.0 | 0.0 | 0.00 | 0.00 | 0.00 | 57 | 1018.1 |
| 20260506112816 | 55 | 252 | 0.0 | 0.0 | 0.00 | 0.00 | 0.00 | 57 | 1018.1 |
| 20260506112347 | 55 | 252 | 0.0 | 0.0 | 0.00 | 0.00 | 0.00 | 57 | 1018.1 |
| 20260506111814 | 55 | 252 | 0.0 | 0.0 | 0.00 | 0.00 | 0.00 | 57 | 1018.1 |
| 20260506111325 | 56 | 252 | 0.0 | 0.0 | 0.00 | 0.00 | 0.00 | 57 | 1018.1 |
| 20260506110816 | 56 | 252 | 0.0 | 0.0 | 0.00 | 0.00 | 0.00 | 56 | 1018.1 |
| 20260506110328 | 56 | 252 | 0.0 | 0.0 | 0.00 | 0.00 | 0.00 | 56 | 1018.0 |
| 20260506105834 | 56 | 252 | 0.0 | 0.0 | 0.00 | 0.00 | 0.00 | 57 | 1018.1 |
| 20260506105325 | 56 | 252 | 0.0 | 0.0 | 0.00 | 0.00 | 0.00 | 58 | 1018.0 |
| 20260506104833 | 56 | 252 | 0.0 | 0.0 | 0.00 | 0.00 | 0.00 | 57 | 1017.9 |
| 20260506104324 | 56 | 252 | 0.0 | 0.0 | 0.00 | 0.00 | 0.00 | 57 | 1017.9 |
| 20260506103852 | 56 | 252 | 0.0 | 0.0 | 0.00 | 0.00 | 0.00 | 57 | 1017.9 |
| 20260506103321 | 56 | 252 | 0.0 | 0.0 | 0.00 | 0.00 | 0.00 | 57 | 1017.8 |
| 20260506102829 | 56 | 252 | 0.0 | 0.0 | 0.00 | 0.00 | 0.00 | 56 | 1017.7 |
| 20260506102319 | 57 | 252 | 0.0 | 0.0 | 0.00 | 0.00 | 0.00 | 55 | 1017.6 |
| 20260506101827 | 57 | 252 | 0.0 | 0.0 | 0.00 | 0.00 | 0.00 | 54 | 1017.7 |
| 20260506101316 | 57 | 252 | 0.0 | 0.0 | 0.00 | 0.00 | 0.00 | 54 | 1017.6 |
| 20260506100826 | 57 | 252 | 0.0 | 0.0 | 0.00 | 0.00 | 0.00 | 53 | 1017.5 |
| 20260506100318 | 57 | 252 | 0.0 | 0.0 | 0.00 | 0.00 | 0.00 | 53 | 1017.5 |
| 20260506095846 | 57 | 252 | 0.0 | 0.0 | 0.00 | 0.00 | 0.00 | 52 | 1017.5 |
| 20260506095315 | 57 | 252 | 0.0 | 0.0 | 0.00 | 0.00 | 0.00 | 52 | 1017.5 |
| 20260506094822 | 57 | 252 | 0.0 | 0.0 | 0.00 | 0.00 | 0.00 | 51 | 1017.5 |
| 20260506094314 | 57 | 252 | 0.0 | 0.0 | 0.00 | 0.00 | 0.00 | 52 | 1017.4 |
| 20260506093822 | 57 | 252 | 0.0 | 0.0 | 0.00 | 0.00 | 0.00 | 53 | 1017.4 |
| 20260506093333 | 58 | 252 | 0.0 | 0.0 | 0.00 | 0.00 | 0.00 | 52 | 1017.4 |
| 20260506092820 | 58 | 252 | 0.0 | 0.0 | 0.00 | 0.00 | 0.00 | 51 | 1017.4 |
| 20260506092315 | 58 | 252 | 0.0 | 0.0 | 0.00 | 0.00 | 0.00 | 50 | 1017.4 |
| 20260506091824 | 58 | 252 | 0.0 | 0.0 | 0.00 | 0.00 | 0.00 | 49 | 1017.4 |
| 20260506091354 | 58 | 252 | 0.0 | 0.0 | 0.00 | 0.00 | 0.00 | 49 | 1017.3 |
| 20260506090820 | 58 | 252 | 0.0 | 0.0 | 0.00 | 0.00 | 0.00 | 48 | 1017.3 |
| 20260506090333 | 59 | 252 | 0.0 | 0.0 | 0.00 | 0.00 | 0.00 | 48 | 1017.2 |
| 20260506085841 | 59 | 252 | 0.0 | 0.0 | 0.00 | 0.00 | 0.00 | 48 | 1017.2 |
| 20260506085331 | 59 | 252 | 0.0 | 0.0 | 0.00 | 0.00 | 0.00 | 48 | 1017.2 |
| 20260506084818 | 59 | 252 | 0.0 | 0.0 | 0.00 | 0.00 | 0.00 | 47 | 1017.3 |
| 20260506084349 | 59 | 252 | 0.0 | 0.0 | 0.00 | 0.00 | 0.00 | 46 | 1017.3 |
| 20260506083815 | 59 | 252 | 0.0 | 0.0 | 0.00 | 0.00 | 0.00 | 46 | 1017.3 |
| 20260506083326 | 59 | 252 | 0.0 | 0.0 | 0.00 | 0.00 | 0.00 | 46 | 1017.3 |
| 20260506082835 | 59 | 252 | 0.0 | 0.0 | 0.00 | 0.00 | 0.00 | 46 | 1017.2 |
| 20260506082345 | 59 | 252 | 0.0 | 0.0 | 0.00 | 0.00 | 0.00 | 47 | 1017.2 |
| 20260506081815 | 60 | 252 | 0.0 | 0.0 | 0.00 | 0.00 | 0.00 | 47 | 1017.1 |
| 20260506081325 | 60 | 252 | 0.0 | 0.0 | 0.00 | 0.00 | 0.00 | 47 | 1017.2 |
| 20260506080833 | 60 | 252 | 0.0 | 0.0 | 0.00 | 0.00 | 0.00 | 46 | 1017.2 |
| 20260506080323 | 60 | 252 | 0.0 | 0.0 | 0.00 | 0.00 | 0.00 | 46 | 1017.2 |
| 20260506073321 | 61 | 252 | 0.0 | 0.0 | 0.00 | 0.00 | 0.00 | 43 | 1017.2 |
| 20260506072848 | 61 | 254 | 0.0 | 0.0 | 0.00 | 0.00 | 0.00 | 43 | 1017.2 |
| 20260506072319 | 61 | 254 | 0.0 | 0.0 | 0.00 | 0.00 | 0.00 | 43 | 1017.1 |
| 20260506071826 | 61 | 254 | 0.0 | 0.0 | 0.00 | 0.00 | 0.00 | 43 | 1017.0 |
| 20260506071315 | 61 | 254 | 0.0 | 0.0 | 0.00 | 0.00 | 0.00 | 43 | 1017.0 |
| 20260506070843 | 61 | 254 | 0.0 | 0.0 | 0.00 | 0.00 | 0.00 | 44 | 1017.0 |
| 20260506070315 | 61 | 254 | 0.0 | 0.0 | 0.00 | 0.00 | 0.00 | 44 | 1017.0 |
| 20260506062330 | 63 | 254 | 0.0 | 0.0 | 0.00 | 0.00 | 0.00 | 38 | 1016.8 |
| 20260506061838 | 63 | 254 | 0.0 | 0.0 | 0.00 | 0.00 | 0.00 | 38 | 1016.7 |
| 20260506061328 | 63 | 254 | 0.0 | 0.0 | 0.00 | 0.00 | 0.00 | 37 | 1016.7 |
| 20260506060836 | 64 | 254 | 0.0 | 0.0 | 0.00 | 0.00 | 0.00 | 37 | 1016.6 |
| 20260506060325 | 64 | 254 | 0.0 | 0.0 | 0.00 | 0.00 | 0.00 | 36 | 1016.6 |
| 20260506051320 | 67 | 254 | 0.0 | 0.0 | 0.00 | 0.00 | 0.00 | 32 | 1016.3 |
| 20260506050827 | 67 | 254 | 0.0 | 0.0 | 0.00 | 0.00 | 0.00 | 31 | 1016.3 |
| 20260506050320 | 68 | 254 | 0.0 | 0.0 | 0.00 | 0.00 | 0.00 | 30 | 1016.3 |
| 20260506044830 | 69 | 254 | 0.0 | 0.0 | 0.00 | 0.00 | 0.00 | 28 | 1016.1 |
| 20260506044322 | 69 | 254 | 0.0 | 0.0 | 0.00 | 0.00 | 0.00 | 28 | 1016.0 |
| 20260506043829 | 69 | 254 | 0.0 | 0.0 | 0.00 | 0.00 | 0.00 | 26 | 1016.0 |
| 20260506043320 | 69 | 254 | 0.0 | 2.0 | 0.00 | 0.00 | 0.00 | 26 | 1016.0 |
| 20260506042848 | 70 | 254 | 0.0 | 3.0 | 0.00 | 0.00 | 0.00 | 25 | 1015.9 |
| 20260506042318 | 70 | 254 | 1.0 | 4.0 | 0.00 | 0.00 | 0.00 | 25 | 1015.9 |
| 20260506041826 | 70 | 254 | 2.0 | 7.0 | 0.00 | 0.00 | 0.00 | 25 | 1015.8 |
| 20260506041316 | 70 | 254 | 3.0 | 7.0 | 0.00 | 0.00 | 0.00 | 24 | 1015.8 |
| 20260506040827 | 70 | 257 | 2.0 | 7.0 | 0.00 | 0.00 | 0.00 | 24 | 1015.7 |
| 20260506040319 | 70 | 257 | 3.0 | 7.0 | 0.00 | 0.00 | 0.00 | 24 | 1015.7 |
| 20260506035826 | 70 | 248 | 1.0 | 7.0 | 0.00 | 0.00 | 0.00 | 24 | 1015.6 |
| 20260506035333 | 71 | 290 | 3.0 | 7.0 | 0.00 | 0.00 | 0.00 | 23 | 1015.6 |
| 20260506034820 | 71 | 265 | 3.0 | 7.0 | 0.00 | 0.00 | 0.00 | 23 | 1015.5 |
| 20260506034332 | 71 | 270 | 3.0 | 7.0 | 0.00 | 0.00 | 0.00 | 23 | 1015.5 |
| 20260506033819 | 71 | 281 | 2.0 | 8.0 | 0.00 | 0.00 | 0.00 | 23 | 1015.4 |
| 20260506033351 | 71 | 284 | 4.0 | 8.0 | 0.00 | 0.00 | 0.00 | 22 | 1015.3 |
| 20260506032816 | 71 | 273 | 4.0 | 11.0 | 0.00 | 0.00 | 0.00 | 22 | 1015.2 |
| 20260506032348 | 72 | 266 | 4.0 | 11.0 | 0.00 | 0.00 | 0.00 | 22 | 1015.2 |
| 20260506031814 | 72 | 246 | 4.0 | 11.0 | 0.00 | 0.00 | 0.00 | 22 | 1015.0 |
| 20260506031330 | 72 | 257 | 4.0 | 11.0 | 0.00 | 0.00 | 0.00 | 22 | 1015.0 |
| 20260506030817 | 72 | 242 | 4.0 | 9.0 | 0.00 | 0.00 | 0.00 | 22 | 1014.8 |
| 20260506030329 | 72 | 259 | 2.0 | 8.0 | 0.00 | 0.00 | 0.00 | 22 | 1014.8 |
| 20260506025816 | 72 | 259 | 5.0 | 8.0 | 0.00 | 0.00 | 0.00 | 22 | 1014.7 |
| 20260506025326 | 72 | 244 | 3.0 | 8.0 | 0.00 | 0.00 | 0.00 | 22 | 1014.6 |
| 20260506024814 | 72 | 251 | 3.0 | 8.0 | 0.00 | 0.00 | 0.00 | 22 | 1014.5 |
| 20260506024325 | 73 | 253 | 2.0 | 7.0 | 0.00 | 0.00 | 0.00 | 22 | 1014.5 |
| 20260506023832 | 73 | 253 | 3.0 | 7.0 | 0.00 | 0.00 | 0.00 | 22 | 1014.4 |
| 20260506023322 | 73 | 255 | 1.0 | 11.0 | 0.00 | 0.00 | 0.00 | 21 | 1014.3 |
| 20260506022833 | 73 | 255 | 4.0 | 11.0 | 0.00 | 0.00 | 0.00 | 21 | 1014.3 |
| 20260506022324 | 73 | 245 | 2.0 | 12.0 | 0.00 | 0.00 | 0.00 | 20 | 1014.2 |
| 20260506021830 | 74 | 259 | 6.0 | 12.0 | 0.00 | 0.00 | 0.00 | 20 | 1014.1 |
| 20260506021322 | 74 | 267 | 6.0 | 10.0 | 0.00 | 0.00 | 0.00 | 20 | 1014.0 |
| 20260506020827 | 74 | 241 | 4.0 | 12.0 | 0.00 | 0.00 | 0.00 | 21 | 1013.9 |
| 20260506020339 | 74 | 271 | 6.0 | 12.0 | 0.00 | 0.00 | 0.00 | 20 | 1013.9 |
| 20260506015845 | 75 | 240 | 5.0 | 12.0 | 0.00 | 0.00 | 0.00 | 19 | 1013.8 |
| 20260506015335 | 75 | 247 | 4.0 | 14.0 | 0.00 | 0.00 | 0.00 | 19 | 1013.8 |
| 20260506014842 | 75 | 258 | 8.0 | 14.0 | 0.00 | 0.00 | 0.00 | 19 | 1013.8 |
| 20260506014332 | 75 | 236 | 5.0 | 11.0 | 0.00 | 0.00 | 0.00 | 20 | 1013.8 |
| 20260506013820 | 76 | 193 | 4.0 | 11.0 | 0.00 | 0.00 | 0.00 | 20 | 1013.7 |
| 20260506013330 | 76 | 261 | 6.0 | 13.0 | 0.00 | 0.00 | 0.00 | 20 | 1013.7 |
| 20260506012837 | 77 | 248 | 4.0 | 13.0 | 0.00 | 0.00 | 0.00 | 20 | 1013.7 |
| 20260506012330 | 77 | 250 | 4.0 | 10.0 | 0.00 | 0.00 | 0.00 | 20 | 1013.6 |
| 20260506011818 | 78 | 284 | 5.0 | 14.0 | 0.00 | 0.00 | 0.00 | 19 | 1013.6 |
| 20260506011329 | 78 | 255 | 7.0 | 14.0 | 0.00 | 0.00 | 0.00 | 19 | 1013.5 |
| 20260506010816 | 78 | 222 | 4.0 | 14.0 | 0.00 | 0.00 | 0.00 | 21 | 1013.5 |
| 20260506010329 | 78 | 296 | 4.0 | 12.0 | 0.00 | 0.00 | 0.00 | 20 | 1013.4 |
| 20260506005816 | 79 | 251 | 6.0 | 12.0 | 0.00 | 0.00 | 0.00 | 19 | 1013.4 |
| 20260506005327 | 79 | 268 | 7.0 | 10.0 | 0.00 | 0.00 | 0.00 | 19 | 1013.4 |
| 20260506004813 | 79 | 250 | 5.0 | 14.0 | 0.00 | 0.00 | 0.00 | 20 | 1013.3 |
| 20260506004344 | 79 | 281 | 7.0 | 14.0 | 0.00 | 0.00 | 0.00 | 20 | 1013.4 |
| 20260506003831 | 79 | 280 | 6.0 | 12.0 | 0.00 | 0.00 | 0.00 | 19 | 1013.4 |
| 20260506003326 | 79 | 207 | 4.0 | 14.0 | 0.00 | 0.00 | 0.00 | 19 | 1013.3 |
| 20260506002814 | 79 | 322 | 6.0 | 14.0 | 0.00 | 0.00 | 0.00 | 19 | 1013.2 |
| 20260506002325 | 79 | 219 | 4.0 | 12.0 | 0.00 | 0.00 | 0.00 | 18 | 1013.1 |
| 20260506001852 | 79 | 246 | 5.0 | 16.0 | 0.00 | 0.00 | 0.00 | 18 | 1013.2 |
| 20260506001342 | 79 | 260 | 7.0 | 16.0 | 0.00 | 0.00 | 0.00 | 19 | 1013.2 |
| 20260506000830 | 79 | 267 | 5.0 | 16.0 | 0.00 | 0.00 | 0.00 | 19 | 1013.2 |
| 20260506000322 | 79 | 234 | 5.0 | 16.0 | 0.00 | 0.00 | 0.00 | 19 | 1013.1 |
| 20260505235828 | 79 | 231 | 8.0 | 14.0 | 0.00 | 0.00 | 0.00 | 18 | 1013.2 |
| 20260505235320 | 79 | 254 | 7.0 | 14.0 | 0.00 | 0.00 | 0.00 | 18 | 1013.2 |
| 20260505234848 | 80 | 256 | 6.0 | 15.0 | 0.00 | 0.00 | 0.00 | 19 | 1013.1 |
| 20260505234319 | 79 | 235 | 5.0 | 15.0 | 0.00 | 0.00 | 0.00 | 19 | 1013.0 |
| 20260505233828 | 79 | 231 | 7.0 | 14.0 | 0.00 | 0.00 | 0.00 | 20 | 1013.1 |
| 20260505233323 | 80 | 258 | 8.0 | 17.0 | 0.00 | 0.00 | 0.00 | 19 | 1013.1 |
| 20260505232832 | 80 | 305 | 8.0 | 17.0 | 0.00 | 0.00 | 0.00 | 18 | 1013.0 |
| 20260505232324 | 80 | 217 | 6.0 | 16.0 | 0.00 | 0.00 | 0.00 | 19 | 1013.0 |
| 20260505231813 | 80 | 281 | 6.0 | 16.0 | 0.00 | 0.00 | 0.00 | 19 | 1013.0 |
| 20260505231325 | 80 | 256 | 4.0 | 16.0 | 0.00 | 0.00 | 0.00 | 19 | 1012.9 |
| 20260505230814 | 80 | 239 | 7.0 | 18.0 | 0.00 | 0.00 | 0.00 | 19 | 1013.1 |
| 20260505230325 | 80 | 211 | 4.0 | 16.0 | 0.00 | 0.00 | 0.00 | 20 | 1013.0 |
| 20260505225831 | 80 | 247 | 8.0 | 16.0 | 0.00 | 0.00 | 0.00 | 20 | 1013.1 |
| 20260505225323 | 81 | 227 | 5.0 | 12.0 | 0.00 | 0.00 | 0.00 | 20 | 1013.1 |
| 20260505224827 | 81 | 269 | 5.0 | 14.0 | 0.00 | 0.00 | 0.00 | 19 | 1013.1 |
| 20260505224322 | 80 | 286 | 5.0 | 15.0 | 0.00 | 0.00 | 0.00 | 19 | 1013.1 |
| 20260505223849 | 80 | 207 | 6.0 | 15.0 | 0.00 | 0.00 | 0.00 | 20 | 1013.2 |
| 20260505223318 | 80 | 224 | 6.0 | 16.0 | 0.00 | 0.00 | 0.00 | 20 | 1013.2 |
| 20260505222823 | 80 | 167 | 6.0 | 16.0 | 0.00 | 0.00 | 0.00 | 20 | 1013.3 |
| 20260505222314 | 80 | 234 | 5.0 | 14.0 | 0.00 | 0.00 | 0.00 | 20 | 1013.3 |
| 20260505221823 | 80 | 269 | 7.0 | 16.0 | 0.00 | 0.00 | 0.00 | 20 | 1013.4 |
| 20260505221335 | 80 | 272 | 8.0 | 16.0 | 0.00 | 0.00 | 0.00 | 20 | 1013.5 |
| 20260505220823 | 79 | 236 | 7.0 | 13.0 | 0.00 | 0.00 | 0.00 | 20 | 1013.5 |
| 20260505220314 | 79 | 219 | 3.0 | 16.0 | 0.00 | 0.00 | 0.00 | 20 | 1013.4 |
| 20260505215822 | 80 | 192 | 7.0 | 16.0 | 0.00 | 0.00 | 0.00 | 20 | 1013.6 |
| 20260505215313 | 80 | 175 | 7.0 | 13.0 | 0.00 | 0.00 | 0.00 | 21 | 1013.5 |
| 20260505214824 | 80 | 272 | 6.0 | 18.0 | 0.00 | 0.00 | 0.00 | 22 | 1013.6 |
| 20260505214335 | 80 | 241 | 11.0 | 18.0 | 0.00 | 0.00 | 0.00 | 22 | 1013.8 |
| 20260505213841 | 80 | 188 | 5.0 | 18.0 | 0.00 | 0.00 | 0.00 | 22 | 1013.7 |
| 20260505213330 | 80 | 270 | 7.0 | 18.0 | 0.00 | 0.00 | 0.00 | 22 | 1013.8 |
| 20260505212817 | 81 | 221 | 8.0 | 12.0 | 0.00 | 0.00 | 0.00 | 22 | 1013.8 |
| 20260505212327 | 81 | 221 | 6.0 | 13.0 | 0.00 | 0.00 | 0.00 | 22 | 1013.8 |
| 20260505211815 | 81 | 188 | 8.0 | 15.0 | 0.00 | 0.00 | 0.00 | 22 | 1013.9 |
| 20260505211326 | 81 | 279 | 8.0 | 16.0 | 0.00 | 0.00 | 0.00 | 21 | 1014.0 |